Defiance, OH

2:16 PM EDT on May 25, 2017 (GMT -0400)
Defiance Memorial

Weather History for KDFI - February, 2013

Change the Weather History Date:

Friday, February 8, 2013

  Actual Average Record
Temperature  
Mean Temperature 27 °F -  
Max Temperature 33 °F 30 °F 67 °F (1937)
Min Temperature 21 °F 12 °F -11 °F (1967)
Degree Days  
Heating Degree Days 38    
Moisture  
Dew Point 26 °F    
Average Humidity 81    
Maximum Humidity 96    
Minimum Humidity 64    
Precipitation  
Precipitation 0.11 in - - ()
Sea Level Pressure  
Sea Level Pressure 30.00 in    
Wind  
Wind Speed 8 mph (NNW)    
Max Wind Speed 21 mph    
Max Gust Speed 26 mph    
Visibility 7 miles    
Events Rain    
Averages and records for this station are not official NWS values.
T = Trace of Precipitation, MM = Missing Value Source: NWS Daily Summary

Daily Weather History Graph

Daily Weather History Graph

Search for Another Location

Airport or City:

Trip Planner

Search our weather history database for the weather conditions in past years. The results will help you decide how hot, cold, wet, or windy it might be!

Date:

Astronomy

Feb. 08, 2013 Rise Set
Actual Time 7:41 AM EST 6:03 PM EST
Civil Twilight 7:12 AM EST 6:32 PM EST
Nautical Twilight 6:39 AM EST 7:04 PM EST
Astronomical Twilight 6:07 AM EST 7:36 PM EST
Moon 6:09 AM EST (2/8) 4:35 PM EST (2/8)
Length of Visible Light 11h 19m
Length of Day
10h 22m
Waning Crescent, 3% of the Moon is Illuminated
Feb 8
Waning Crescent
Feb 10
New
Feb 17
First Quarter
Feb 25
Full
Mar 4
Last Quarter

Hourly Weather History & Observations

Time (EST) Temp. Windchill Dew Point Humidity Pressure Visibility Wind Dir Wind Speed Gust Speed Precip Events Conditions
12:13 AM 33.8 °F 27.7 °F 30.2 °F 87% 29.78 in 3.0 mi NE 6.9 mph - 0.01 in Rain Light Rain
12:53 AM 33.1 °F 28.7 °F 30.9 °F 92% 29.79 in 2.5 mi ENE 4.6 mph - 0.06 in Rain Light Rain
12:55 AM 33.8 °F 28.6 °F 30.2 °F 87% 29.77 in 3.0 mi ENE 5.8 mph - 0.00 in Rain Light Rain
1:49 AM 33.8 °F - 32.0 °F 93% 29.77 in 3.0 mi Calm Calm - 0.04 in Rain Light Rain
1:50 AM 33.1 °F - 32.0 °F 96% 29.79 in 3.0 mi Calm Calm - 0.04 in Rain Light Rain
2:12 AM 33.8 °F 28.6 °F 30.2 °F 87% 29.77 in 2.5 mi North 5.8 mph - 0.00 in Rain Light Rain
2:37 AM 33.8 °F 29.6 °F 32.0 °F 93% 29.77 in 3.0 mi North 4.6 mph - 0.01 in   Overcast
2:53 AM 33.1 °F 30.0 °F 32.0 °F 96% 29.79 in 2.5 mi NNW 3.5 mph - 0.01 in   Overcast
3:51 AM 33.8 °F 28.6 °F 32.0 °F 93% 29.78 in 2.0 mi WNW 5.8 mph - N/A   Overcast
3:53 AM 33.1 °F 27.7 °F 32.0 °F 96% 29.80 in 2.0 mi WNW 5.8 mph - N/A   Overcast
4:13 AM 33.8 °F 27.7 °F 30.2 °F 87% 29.79 in 2.5 mi WNW 6.9 mph - N/A   Overcast
4:34 AM 33.8 °F 27.7 °F 30.2 °F 87% 29.79 in 3.0 mi NW 6.9 mph - N/A   Overcast
4:53 AM 33.1 °F 26.9 °F 30.9 °F 92% 29.82 in 3.0 mi NW 6.9 mph - N/A   Overcast
5:18 AM 33.8 °F 29.6 °F 32.0 °F 93% 29.81 in 2.5 mi Variable 4.6 mph - N/A   Overcast
5:37 AM 33.8 °F 25.8 °F 30.2 °F 87% 29.82 in 3.0 mi WNW 10.4 mph 19.6 mph N/A   Overcast
5:50 AM 33.8 °F 23.5 °F 30.2 °F 87% 29.83 in 4.0 mi NW 16.1 mph 21.9 mph N/A   Overcast
5:53 AM 33.1 °F 23.9 °F 30.9 °F 92% 29.86 in 4.0 mi NW 12.7 mph 21.9 mph N/A   Overcast
6:38 AM 32.0 °F 22.5 °F 28.4 °F 87% 29.87 in 8.0 mi NNW 12.7 mph 20.7 mph N/A   Overcast
6:53 AM 32.0 °F 20.1 °F 28.0 °F 85% 29.90 in 9.0 mi NW 19.6 mph 23.0 mph N/A   Overcast
7:26 AM 30.2 °F 19.3 °F 26.6 °F 86% 29.90 in 10.0 mi NW 15.0 mph - N/A   Overcast
7:53 AM 30.9 °F 20.7 °F 26.1 °F 82% 29.94 in 9.0 mi NW 13.8 mph - N/A   Overcast
8:53 AM 30.9 °F 19.4 °F 26.1 °F 82% 29.99 in 10.0 mi NNW 17.3 mph 23.0 mph 0.00 in   Overcast
9:53 AM 30.9 °F 19.8 °F 26.1 °F 82% 30.03 in 10.0 mi NNW 16.1 mph 21.9 mph N/A   Overcast
10:53 AM 30.9 °F 19.4 °F 24.1 °F 76% 30.07 in 10.0 mi NNW 17.3 mph 26.5 mph N/A   Overcast
11:53 AM 30.9 °F 19.8 °F 24.1 °F 76% 30.12 in 10.0 mi NNW 16.1 mph - N/A   Overcast
12:53 PM 30.9 °F 19.1 °F 23.0 °F 72% 30.13 in 10.0 mi NNW 18.4 mph - N/A   Overcast
1:53 PM 30.9 °F 18.4 °F 23.0 °F 72% 30.16 in 10.0 mi NNW 20.7 mph - N/A   Overcast
2:53 PM 30.9 °F 20.7 °F 21.9 °F 69% 30.17 in 10.0 mi NNW 13.8 mph - N/A   Overcast
3:36 PM 30.2 °F 18.9 °F 21.2 °F 69% 30.17 in 10.0 mi North 16.1 mph - N/A   Scattered Clouds
3:53 PM 30.9 °F 21.2 °F 21.0 °F 67% 30.20 in 10.0 mi North 12.7 mph 17.3 mph N/A   Partly Cloudy
4:11 PM 30.2 °F 18.9 °F 21.2 °F 69% 30.18 in 10.0 mi NNW 16.1 mph - N/A   Mostly Cloudy
4:27 PM 30.2 °F 19.8 °F 19.4 °F 64% 30.19 in 10.0 mi North 13.8 mph - N/A   Scattered Clouds
4:53 PM 30.9 °F 20.2 °F 19.9 °F 64% 30.23 in 10.0 mi NNW 15.0 mph - N/A   Partly Cloudy
5:53 PM 30.0 °F 20.5 °F 19.0 °F 64% 30.26 in 10.0 mi North 11.5 mph - N/A   Partly Cloudy
6:53 PM 27.0 °F 20.5 °F 17.1 °F 66% 30.30 in 10.0 mi North 5.8 mph - N/A   Clear
7:53 PM 26.1 °F 20.5 °F 16.0 °F 66% 30.32 in 10.0 mi NNW 4.6 mph - N/A   Clear
8:53 PM 25.0 °F - 16.0 °F 69% 30.34 in 10.0 mi Calm Calm - N/A   Clear
9:53 PM 21.9 °F 17.2 °F 15.1 °F 75% 30.36 in 10.0 mi NW 3.5 mph - N/A   Clear
10:53 PM 21.0 °F - 14.0 °F 74% 30.38 in 10.0 mi Calm Calm - N/A   Clear
11:53 PM 21.0 °F 16.2 °F 15.1 °F 78% 30.37 in 10.0 mi NW 3.5 mph - N/A   Clear